Location: Newark
(13.8117°N, 3.6025°W)
Time: 09:43:14
(UTC+00:00)

Explorer 11/Cluster Stage 4 - Pass Details

Date: 29 August 2019
Orbit: 467 x 1260 km, 28.8° (Epoch: 17 September)

Event Time Altitude Azimuth Distance (km) Brightness Sun altitude
Rises 15:43:46 0° 284° (WNW) 4,167 11.2 38.9°
Reaches altitude 10° 15:47:05 10° 276° (W) 3,147 10.9 38.1°
Maximum altitude 15:54:03 34° 214° (SW) 1,718 9.1 36.4°
Drops below altitude 10° 16:00:06 10° 151° (SSE) 2,719 9.2 34.9°
Sets 16:02:47 0° 142° (SE) 3,539 9.6 34.2°
